Adana/Incirlik, Turkey

10:04 PM +03 on January 22, 2017 (GMT +0300)
Incirlik Air Base

Weather History for LTAG - February, 2013

Change the Weather History Date:

Tuesday, February 26, 2013

  Actual Average Record
Temperature  
Mean Temperature 60 °F -  
Max Temperature 74 °F 66 °F 76 °F (2016)
Min Temperature 45 °F 47 °F 32 °F (2003)
Degree Days  
Heating Degree Days 6    
Growing Degree Days 10 (Base 50)    
Moisture  
Dew Point 43 °F    
Average Humidity 62    
Maximum Humidity 93    
Minimum Humidity 18    
Precipitation  
Precipitation 0.00 in - - ()
Sea Level Pressure  
Sea Level Pressure 30.09 in    
Wind  
Wind Speed 4 mph ()    
Max Wind Speed 15 mph    
Max Gust Speed -    
Visibility 6.0 miles    
Events      
Averages and records for this station are not official NWS values.
T = Trace of Precipitation, MM = Missing Value Source: Averaged Metar Reports

Daily Weather History Graph

Daily Weather History Graph

Search for Another Location

Airport or City:

Trip Planner

Search our weather history database for the weather conditions in past years. The results will help you decide how hot, cold, wet, or windy it might be!

Date:

Astronomy

Feb. 26, 2013 Rise Set
Actual Time 6:13 AM EET 5:29 PM EET
Civil Twilight 5:47 AM EET 5:55 PM EET
Nautical Twilight 5:17 AM EET 6:25 PM EET
Astronomical Twilight 4:47 AM EET 6:55 PM EET
Moon 6:21 PM EET (2/26) 6:06 AM EET (2/26)
Length of Visible Light 12h 08m
Length of Day
11h 16m
Full, 100% of the Moon is Illuminated
Feb 26
Full
Mar 4
Last Quarter
Mar 11
New
Mar 19
First Quarter
Mar 27
Full

Hourly Weather History & Observations

Time (EET) Temp. Windchill Dew Point Humidity Pressure Visibility Wind Dir Wind Speed Gust Speed Precip Events Conditions
12:20 AM 50.0 °F - 46.4 °F 87% 30.18 in - NE 2.3 mph - N/A   Clear
12:50 AM 48.2 °F - 44.6 °F 87% 30.18 in - NE 2.3 mph - N/A   Clear
1:20 AM 48.2 °F - 44.6 °F 87% 30.18 in - NE 4.6 mph - N/A   Clear
1:50 AM 46.4 °F 44.3 °F 44.6 °F 93% 30.18 in - NNE 4.6 mph - N/A   Clear
2:00 AM 47 °F - 44 °F 84% 30.18 in 6 mi NNE 4.6 mph - -   Clear
2:20 AM 50.0 °F - 42.8 °F 76% 30.15 in - ENE 4.6 mph - N/A   Clear
2:50 AM 46.4 °F 44.3 °F 42.8 °F 87% 30.15 in - NNE 4.6 mph - N/A   Clear
3:20 AM 46.4 °F - 42.8 °F 87% 30.15 in - NNW 2.3 mph - N/A   Clear
3:50 AM 46.4 °F 45.2 °F 42.8 °F 87% 30.12 in - NW 3.5 mph - N/A   Clear
4:20 AM 46.4 °F 43.5 °F 42.8 °F 87% 30.12 in - NW 5.8 mph - N/A   Clear
4:50 AM 46.4 °F 43.5 °F 42.8 °F 87% 30.12 in - NNW 5.8 mph - N/A   Clear
5:20 AM 50.0 °F - 41.0 °F 71% 30.12 in - North 4.6 mph - N/A   Clear
5:50 AM 51.8 °F - 41.0 °F 67% 30.12 in - NE 3.5 mph - N/A   Clear
6:20 AM 51.8 °F - 41.0 °F 67% 30.12 in - NNE 4.6 mph - N/A   Clear
6:50 AM 50.0 °F - 41.0 °F 71% 30.12 in - North 3.5 mph - N/A   Clear
7:20 AM 53.6 °F - 42.8 °F 67% 30.12 in - NNE 3.5 mph - N/A   Clear
7:50 AM 57.2 °F - 42.8 °F 59% 30.15 in - North 3.5 mph - N/A   Clear
8:00 AM 58 °F - 44 °F 48% 30.15 in 6 mi North 3.5 mph - -  
8:20 AM 59.0 °F - 42.8 °F 55% 30.15 in - North 2.3 mph - N/A   Clear
8:50 AM 62.6 °F - 44.6 °F 52% 30.12 in - NNE 4.6 mph - N/A   Clear
9:20 AM 66.2 °F - 44.6 °F 46% 30.12 in - NNE 9.2 mph - N/A   Clear
9:50 AM 68.0 °F - 42.8 °F 40% 30.12 in - NE 15.0 mph - N/A   Clear
10:20 AM 68.0 °F - 42.8 °F 40% 30.12 in - NE 13.8 mph - N/A   Clear
10:50 AM 69.8 °F - 42.8 °F 38% 30.12 in - NE 11.5 mph - N/A   Clear
11:20 AM 69.8 °F - 44.6 °F 40% 30.12 in - NE 11.5 mph - N/A   Clear
11:50 AM 71.6 °F - 42.8 °F 35% 30.09 in - NE 5.8 mph - N/A   Clear
12:20 PM 71.6 °F - 41.0 °F 33% 30.09 in - NNE 5.8 mph - N/A   Clear
12:50 PM 71.6 °F - 39.2 °F 31% 30.06 in - NE 5.8 mph - N/A   Clear
1:20 PM 73.4 °F - 41.0 °F 31% 30.06 in - ENE 5.8 mph - N/A   Clear
1:50 PM 73.4 °F - 39.2 °F 29% 30.06 in - ESE 3.5 mph - N/A   Clear
2:00 PM 73 °F - 39 °F 18% 30.06 in 6 mi ESE 3.5 mph - -  
2:20 PM 73.4 °F - 39.2 °F 29% 30.04 in - ESE 3.5 mph - N/A   Clear
2:50 PM 73.4 °F - 39.2 °F 29% 30.04 in - ESE 3.5 mph - N/A   Clear
3:20 PM 73.4 °F - 39.2 °F 29% 30.04 in - East 3.5 mph - N/A   Clear
3:50 PM 71.6 °F - 39.2 °F 31% 30.04 in - North 2.3 mph - N/A   Clear
4:20 PM 73.4 °F - 39.2 °F 29% 30.04 in - East 4.6 mph - N/A   Clear
4:50 PM 71.6 °F - 39.2 °F 31% 30.04 in - East 2.3 mph - N/A   Clear
5:20 PM 68.0 °F - 42.8 °F 40% 30.04 in - NNE 3.5 mph - N/A   Clear
5:50 PM 64.4 °F - 44.6 °F 49% 30.04 in - ENE 3.5 mph - N/A   Clear
6:20 PM 59.0 °F - 48.2 °F 67% 30.04 in - NNE 3.5 mph - N/A   Clear
6:50 PM 55.4 °F - 50.0 °F 82% 30.04 in - NNE 5.8 mph - N/A   Clear
7:20 PM 51.8 °F - 48.2 °F 88% 30.04 in - NE 6.9 mph - N/A   Clear
7:50 PM 51.8 °F - 48.2 °F 88% 30.04 in - NNE 4.6 mph - N/A   Clear
8:00 PM 52 °F - 48 °F 82% 30.05 in 6 mi NNE 4.6 mph - -  
8:20 PM 51.8 °F - 46.4 °F 82% 30.04 in - North 3.5 mph - N/A   Clear
8:50 PM 50.0 °F - 46.4 °F 87% 30.04 in - North 5.8 mph - N/A   Clear
9:20 PM 50.0 °F - 44.6 °F 82% 30.04 in - NNE 4.6 mph - N/A   Clear
9:50 PM 50.0 °F - 44.6 °F 82% 30.04 in - NE 5.8 mph - N/A   Clear
10:20 PM 50.0 °F - 44.6 °F 82% 30.04 in - NNE 4.6 mph - N/A   Clear
10:50 PM 48.2 °F - 42.8 °F 82% 30.04 in - NE 9.2 mph - N/A   Clear
11:20 PM 48.2 °F - 42.8 °F 82% 30.04 in - NNE 4.6 mph - N/A   Clear
11:50 PM 50.0 °F - 42.8 °F 76% 30.04 in - NNW 4.6 mph - N/A   Clear